Shreveport, LA

11:22 PM CDT on August 26, 2016 (GMT -0500)
Barksdale Air Force Base

Weather History for KBAD - September, 2013

Change the Weather History Date:

Monday, September 16, 2013

  Actual Average Record
Temperature  
Mean Temperature 82 °F -  
Max Temperature 94 °F 84 °F 97 °F (2010)
Min Temperature 69 °F 63 °F 51 °F (2000)
Cooling Degree Days 16    
Growing Degree Days 32 (Base 50)    
Moisture  
Dew Point 63 °F    
Average Humidity 51    
Maximum Humidity 68    
Minimum Humidity 37    
Precipitation  
Precipitation 0.00 in - - ()
Sea Level Pressure  
Sea Level Pressure 30.05 in    
Wind  
Wind Speed 2 mph (East)    
Max Wind Speed 9 mph    
Max Gust Speed -    
Visibility 10 miles    
Events      
Averages and records for this station are not official NWS values.
T = Trace of Precipitation, MM = Missing Value Source: NWS Daily Summary

Daily Weather History Graph

Daily Weather History Graph

Search for Another Location

Airport or City:

Trip Planner

Search our weather history database for the weather conditions in past years. The results will help you decide how hot, cold, wet, or windy it might be!

Date:

Astronomy

Sep. 16, 2013 Rise Set
Actual Time 6:59 AM CDT 7:19 PM CDT
Civil Twilight 6:34 AM CDT 7:43 PM CDT
Nautical Twilight 6:05 AM CDT 8:12 PM CDT
Astronomical Twilight 5:36 AM CDT 8:41 PM CDT
Moon 5:22 PM CDT (9/16) 3:54 AM CDT (9/16)
Length of Visible Light 13h 09m
Length of Day
12h 19m
Waxing Gibbous, 90% of the Moon is Illuminated
Sep 16
Waxing Gibbous
Sep 19
Full
Sep 26
Last Quarter
Oct 4
New
Oct 11
First Quarter

Hourly Weather History & Observations

Time (CDT) Temp. Heat Index Dew Point Humidity Pressure Visibility Wind Dir Wind Speed Gust Speed Precip Events Conditions
12:58 AM 77.5 °F - 55.9 °F 47% 30.04 in 10.0 mi Calm Calm - N/A   Clear
1:58 AM 78.3 °F - 55.9 °F 46% 30.04 in 10.0 mi Calm Calm - N/A   Clear
2:58 AM 76.6 °F - 55.0 °F 47% 30.04 in 10.0 mi SE 3.5 mph - N/A   Clear
3:58 AM 75.2 °F - 55.9 °F 51% 30.04 in 10.0 mi Calm Calm - N/A   Clear
4:58 AM 72.7 °F - 57.7 °F 59% 30.05 in 10.0 mi SE 1.2 mph - N/A   Clear
5:58 AM 71.2 °F - 58.5 °F 64% 30.06 in 10.0 mi ESE 1.2 mph - N/A   Clear
6:58 AM 69.8 °F - 59.0 °F 68% 30.07 in 10.0 mi SE 2.3 mph - N/A   Clear
7:58 AM 73.0 °F - 61.3 °F 67% 30.09 in 10.0 mi Variable 2.3 mph - N/A   Clear
8:58 AM 77.9 °F - 64.9 °F 64% 30.10 in 10.0 mi Calm Calm - N/A   Clear
9:58 AM 84.2 °F 86.8 °F 66.9 °F 56% 30.12 in 10.0 mi Calm Calm - N/A   Mostly Cloudy
10:58 AM 86.9 °F 88.9 °F 65.5 °F 49% 30.12 in 10.0 mi Variable 3.5 mph - N/A   Scattered Clouds
11:58 AM 89.6 °F 93.0 °F 67.5 °F 48% 30.11 in 10.0 mi NNW 4.6 mph - N/A   Scattered Clouds
12:58 PM 92.8 °F 95.2 °F 64.9 °F 40% 30.09 in 10.0 mi Variable 3.5 mph - N/A   Clear
1:58 PM 94.5 °F 97.0 °F 65.3 °F 38% 30.06 in 10.0 mi SE 5.8 mph - N/A   Clear
2:58 PM 93.4 °F 95.6 °F 65.1 °F 39% 30.03 in 10.0 mi NE 4.6 mph - N/A   Mostly Cloudy
3:58 PM 93.0 °F 94.6 °F 64.2 °F 38% 30.01 in 10.0 mi East 8.1 mph - N/A   Clear
4:58 PM 93.6 °F 95.5 °F 64.6 °F 38% 30.01 in 10.0 mi ENE 8.1 mph - N/A   Clear
5:58 PM 93.9 °F 95.6 °F 63.7 °F 37% 30.00 in 10.0 mi East 9.2 mph - N/A   Clear
6:58 PM 90.9 °F 92.3 °F 64.2 °F 41% 30.00 in 10.0 mi East 4.6 mph - N/A   Clear
7:58 PM 86.7 °F 88.1 °F 64.4 °F 47% 30.01 in 10.0 mi ENE 4.6 mph - N/A   Clear
8:58 PM 84.4 °F 86.1 °F 65.1 °F 52% 30.01 in 10.0 mi ENE 4.6 mph - N/A   Clear
9:58 PM 82.2 °F 84.2 °F 65.5 °F 57% 30.04 in 10.0 mi ENE 4.6 mph - N/A   Clear
10:58 PM 81.0 °F 83.2 °F 66.4 °F 61% 30.06 in 10.0 mi East 1.2 mph - N/A   Overcast
11:58 PM 81.9 °F 84.1 °F 66.2 °F 59% 30.06 in 10.0 mi ENE 5.8 mph - N/A   Mostly Cloudy